| time (UTC) | temp F | wind direction | speed knots | gust knots | rain 1hr in | rain 24hr in | rain mn in | humidity % | barometer mb |
| 20260505011559 | 66 | 238 | 0.0 | 0.0 | 0.00 | 0.00 | 0.00 | 90 | 1019.6 |
| 20260505010113 | 66 | 238 | 0.0 | 0.0 | 0.00 | 0.00 | 0.00 | 90 | 1019.3 |
| 20260505010001 | 66 | 238 | 0.0 | 0.0 | 0.00 | 0.00 | 0.00 | 90 | 1019.3 |
| 20260505004559 | 66 | 238 | 0.0 | 2.6 | 0.00 | 0.00 | 0.00 | 90 | 1019.2 |
| 20260505003116 | 66 | 240 | 0.0 | 0.0 | 0.00 | 0.00 | 0.00 | 90 | 1019.0 |
| 20260505001559 | 66 | 240 | 0.0 | 1.7 | 0.00 | 0.00 | 0.00 | 90 | 1018.7 |
| 20260505000002 | 66 | 240 | 0.0 | 2.6 | 0.00 | 0.00 | 0.00 | 90 | 1018.8 |
| 20260504234559 | 66 | 238 | 0.0 | 1.7 | 0.00 | 0.00 | 0.00 | 89 | 1018.7 |
| 20260504233108 | 66 | 238 | 0.0 | 0.0 | 0.00 | 0.00 | 0.00 | 89 | 1018.3 |
| 20260504231558 | 66 | 238 | 0.0 | 1.7 | 0.00 | 0.00 | 0.00 | 89 | 1018.5 |
| 20260504230115 | 66 | 238 | 0.0 | 1.7 | 0.00 | 0.00 | 0.00 | 89 | 1018.4 |
| 20260504230002 | 66 | 238 | 0.0 | 1.7 | 0.00 | 0.00 | 0.00 | 89 | 1018.4 |
| 20260504224626 | 67 | 238 | 0.9 | 2.6 | 0.00 | 0.00 | 0.00 | 88 | 1018.2 |
| 20260504223106 | 67 | 236 | 0.0 | 1.7 | 0.00 | 0.00 | 0.00 | 88 | 1018.2 |
| 20260504221558 | 67 | 243 | 0.9 | 2.6 | 0.00 | 0.00 | 0.00 | 88 | 1018.2 |
| 20260504220101 | 67 | 326 | 0.0 | 0.9 | 0.00 | 0.00 | 0.00 | 87 | 1018.1 |
| 20260504220002 | 67 | 326 | 0.0 | 0.9 | 0.00 | 0.00 | 0.00 | 87 | 1018.1 |
| 20260504214559 | 67 | 326 | 0.0 | 2.6 | 0.00 | 0.00 | 0.00 | 87 | 1017.7 |
| 20260504213103 | 68 | 214 | 0.9 | 4.3 | 0.00 | 0.00 | 0.00 | 87 | 1017.7 |
| 20260504211602 | 68 | 161 | 0.9 | 1.7 | 0.00 | 0.00 | 0.00 | 87 | 1017.3 |
| 20260504210104 | 68 | 255 | 0.0 | 1.7 | 0.00 | 0.00 | 0.00 | 87 | 1017.3 |
| 20260504210005 | 68 | 255 | 0.0 | 1.7 | 0.00 | 0.00 | 0.00 | 87 | 1017.3 |
| 20260504204602 | 69 | 254 | 0.0 | 0.0 | 0.00 | 0.00 | 0.00 | 86 | 1017.3 |
| 20260504203059 | 69 | 255 | 0.0 | 0.0 | 0.00 | 0.00 | 0.00 | 85 | 1016.9 |
| 20260504201610 | 70 | 255 | 0.9 | 1.7 | 0.00 | 0.00 | 0.00 | 84 | 1017.0 |
| 20260504200104 | 71 | 255 | 0.9 | 3.5 | 0.00 | 0.00 | 0.00 | 83 | 1016.8 |
| 20260504200004 | 71 | 255 | 0.9 | 3.5 | 0.00 | 0.00 | 0.00 | 83 | 1016.8 |
| 20260504194558 | 72 | 281 | 0.0 | 1.7 | 0.00 | 0.00 | 0.00 | 81 | 1016.3 |
| 20260504193058 | 72 | 281 | 0.9 | 2.6 | 0.00 | 0.00 | 0.00 | 80 | 1016.5 |
| 20260504191614 | 72 | 281 | 0.0 | 1.7 | 0.00 | 0.00 | 0.00 | 79 | 1016.5 |
| 20260504190059 | 73 | 281 | 0.0 | 1.7 | 0.00 | 0.00 | 0.00 | 77 | 1016.7 |
| 20260504190001 | 73 | 281 | 0.0 | 1.7 | 0.00 | 0.00 | 0.00 | 76 | 1016.7 |
| 20260504184600 | 73 | 280 | 0.0 | 1.7 | 0.00 | 0.00 | 0.00 | 77 | 1016.5 |
| 20260504183058 | 74 | 276 | 0.0 | 2.6 | 0.00 | 0.00 | 0.00 | 73 | 1016.5 |
| 20260504181602 | 74 | 37 | 0.9 | 3.5 | 0.00 | 0.00 | 0.00 | 71 | 1016.8 |
| 20260504180059 | 73 | 274 | 0.0 | 3.5 | 0.00 | 0.00 | 0.00 | 72 | 1017.2 |
| 20260504180001 | 73 | 274 | 0.9 | 3.5 | 0.00 | 0.00 | 0.00 | 72 | 1017.2 |
| 20260504174559 | 74 | 232 | 1.7 | 3.5 | 0.00 | 0.00 | 0.00 | 71 | 1017.5 |
| 20260504173059 | 73 | 254 | 0.9 | 2.6 | 0.00 | 0.00 | 0.00 | 72 | 1017.3 |
| 20260504171600 | 73 | 79 | 0.9 | 2.6 | 0.00 | 0.00 | 0.00 | 74 | 1017.5 |
| 20260504160105 | 72 | 23 | 1.7 | 4.3 | 0.00 | 0.00 | 0.00 | 74 | 1018.6 |
| 20260504120131 | 64 | 77 | 0.0 | 0.0 | 0.00 | 0.00 | 0.00 | 86 | 1020.8 |
| 20260504081603 | 60 | 245 | 0.0 | 0.0 | 0.00 | 0.00 | 0.00 | 88 | 1019.0 |
| 20260504050001 | 60 | 240 | 0.0 | 0.0 | 0.00 | 0.00 | 0.00 | 87 | 1020.3 |
| 20260504044558 | 60 | 240 | 0.0 | 0.0 | 0.00 | 0.00 | 0.00 | 87 | 1020.6 |
| 20260504043114 | 60 | 240 | 0.0 | 0.0 | 0.00 | 0.00 | 0.00 | 87 | 1020.7 |
| 20260504041558 | 60 | 240 | 0.0 | 0.0 | 0.00 | 0.00 | 0.00 | 87 | 1020.9 |
| 20260504040058 | 60 | 240 | 0.0 | 0.0 | 0.00 | 0.00 | 0.00 | 87 | 1021.1 |
| 20260504040002 | 60 | 240 | 0.0 | 0.0 | 0.00 | 0.00 | 0.00 | 87 | 1021.1 |
| 20260504034600 | 60 | 240 | 0.0 | 0.0 | 0.00 | 0.00 | 0.00 | 87 | 1021.2 |
| 20260504033121 | 60 | 239 | 0.0 | 0.0 | 0.00 | 0.00 | 0.00 | 87 | 1021.3 |
| 20260504031600 | 59 | 241 | 0.0 | 0.0 | 0.00 | 0.00 | 0.00 | 87 | 1021.5 |
| 20260504030118 | 59 | 240 | 0.9 | 2.6 | 0.00 | 0.00 | 0.00 | 88 | 1021.7 |
| 20260504030003 | 59 | 240 | 0.0 | 2.6 | 0.00 | 0.00 | 0.00 | 88 | 1021.7 |
| 20260504024559 | 59 | 259 | 0.0 | 1.7 | 0.00 | 0.00 | 0.00 | 88 | 1021.7 |
| 20260504023059 | 59 | 78 | 0.0 | 1.7 | 0.00 | 0.00 | 0.00 | 89 | 1021.8 |
| 20260504021559 | 59 | 70 | 0.0 | 0.0 | 0.00 | 0.00 | 0.00 | 88 | 1021.7 |
| 20260504020107 | 60 | 69 | 0.0 | 0.0 | 0.00 | 0.00 | 0.00 | 88 | 1022.0 |
| 20260504020002 | 60 | 69 | 0.0 | 0.0 | 0.00 | 0.00 | 0.00 | 88 | 1022.0 |
| 20260504014607 | 60 | 69 | 0.0 | 0.0 | 0.00 | 0.00 | 0.00 | 88 | 1022.1 |
| 20260504013059 | 60 | 69 | 0.0 | 0.0 | 0.00 | 0.00 | 0.00 | 88 | 1022.2 |